Location: Taukkyan
(23.1052°N, 94.0030°E)
Time: 11:47:07
(UTC+00:00)

Resurs 01 Rocket - Pass Details

Date: 06 July 2020
Orbit: 635 x 643 km, 98.0° (Epoch: 15 August)

Event Time Altitude Azimuth Distance (km) Brightness Sun altitude
Exits shadow 14:38:54 83° 267° (W) 646 1.5 -25.0°
Drops below altitude 10° 14:43:17 10° 346° (NNW) 2,023 4.9 -25.8°
Sets 14:45:29 0° 348° (NNW) 2,932 5.8 -26.1°
